Skip Page Navigation
NASA JPL Caltech
NASA Logo - Jet Propulsion Laboratory + View the NASA Portal
+ Center for Near-Earth Object Studies
JPL Home Earth Solar System Stars & Galaxies Technology
JPL Solar System Dynamics
BODIES ORBITS EPHEMERIDES TOOLS PHYSICAL DATA DISCOVERY FAQ SITE MAP
JPL Small-Body Database Browser
Search: [ help ]  
123407 (2000 WG94)
Classification: Main-belt Asteroid          SPK-ID: 2123407
Ephemeris | Orbit Diagram | Orbital Elements | Mission Design | Physical Parameters | Discovery Circumstances | Close-Approach Data ]

[ show orbit diagram ]
Orbital Elements at Epoch 2459000.5 (2020-May-31.0) TDB
Reference: JPL 17 (heliocentric ecliptic J2000)
 Element Value Uncertainty (1-sigma)   Units 
e .02610938903539208 5.0193e-08  
a 2.726010691560874 2.0814e-08 au
q 2.654836217900273 1.4068e-07 au
i 7.003485322236234 4.3875e-06 deg
node 263.1604803648328 4.4034e-05 deg
peri 95.19633628226768 0.0001004 deg
M 192.6332841350744 9.2357e-05 deg
tp 2459764.786788938742
(2022-Jul-04.28678894)
0.0004241 TDB
period 1643.954370473538
4.50
1.8828e-05
5.155e-08
d
yr
n .2189841801365221 2.508e-09 deg/d
Q 2.797185165221475 2.1357e-08 au
  Orbit Determination Parameters
   # obs. used (total)      544  
   data-arc span      8574 days (23.47 yr)  
   first obs. used      1996-11-05  
   last obs. used      2020-04-27  
   planetary ephem.      DE431  
   SB-pert. ephem.      SB431-N16  
   condition code      0  
   norm. resid. RMS      .54333  
   source      ORB  
   producer      Otto Matic  
   solution date      2020-May-20 21:00:03  

Additional Information
 Earth MOID = 1.66132 au 
 Jupiter MOID = 2.33837 au 
 T_jup = 3.345 
[ show covariance matrix ]

Ephemeris | Orbit Diagram | Orbital Elements | Mission Design | Physical Parameters | Discovery Circumstances | Close-Approach Data ]

Physical Parameter Table
Parameter Symbol Value Units Sigma Reference Notes
absolute magnitude H 15.4   n/a MPO325333  

123407 (2000 WG94)          Discovered 2000-Nov-21 by LINEAR at Socorro
Reference: 20060314/Numbers.arcLast Updated: 2006-03-23

[ show close-approach data ]
Alternate Designations
 2000 WG94 = 2002 FH35 
Ephemeris | Orbit Diagram | Orbital Elements | Mission Design | Physical Parameters | Discovery Circumstances | Close-Approach Data ]
ABOUT SSD CREDITS/AWARDS PRIVACY/COPYRIGHT GLOSSARY LINKS
FirstGov 2020-Nov-01 02:29 UT
(server date/time)  
NASA Home Page
Site Manager:   Ryan S. Park
Webmaster  Alan B. Chamberlin